Weather Roundup
Issued by NWS Chicago, IL

Home | Current Version | Previous Version | Text Only | Print | Product List | Glossary Off
Versions: 1 2 3 4 5 6 7 8 9 10 11 12 13 14 15 16 17 18 19 20 21 22 23 24 25 26 27 28 29 30 31 32 33 34 35 36 37 38 39 40 41 42 43 44 45 46 47 48 49 50

000
NZUS59 KLOT 261703
HRRLOT

CHICAGO AREA WEATHER ROUNDUP
NATIONAL WEATHER SERVICE CHICAGO/ROMEOVILLE IL
1200 PM CDT TUE JUL 26 2016

NOTE: "FAIR" INDICATES FEW OR NO CLOUDS BELOW 12,000 FEET WITH NO
SIGNIFICANT WEATHER AND/OR OBSTRUCTIONS TO VISIBILITY.

* THESE STATIONS ARE NOT UNDER NWS QUALITY CONTROL. THEY ALSO MAY NOT
  REPORT WEATHER SUCH AS PRECIPITATION OR FOG.

ILZ005-006-012>014-019>023-261800-
NORTHEAST ILLINOIS

CITY           SKY/WX    TMP DP  RH WIND       PRES   REMARKS
OHARE          MOSUNNY   84  61  45 NE7       30.05F HX  84
MIDWAY         PTSUNNY   85  64  49 E8        30.05F HX  86
AURORA         PTSUNNY   84  66  54 VRB5      30.07F HX  86
LANSING*       PTSUNNY   83  62  48 CALM      30.06F HX  84
WAUKEGAN       SUNNY     81  63  54 E7        30.06F HX  82
DUPAGE AIRPORT PTSUNNY   84  63  49 VRB3      30.06F HX  85
WHEELING       SUNNY     83  61  47 VRB6      30.07F HX  83
KANKAKEE*      MOSUNNY   83  65  53 E6        30.07S HX  85
MORRIS*        SUNNY     82  68  62 SE5       30.06S HX  85
NORTHERLY ISL    N/A     78  68  71 E6          N/A  HX  80
$$

WIZ051-052-058>065-066-070>072-261800-
SOUTHEAST WISCONSIN

CITY           SKY/WX    TMP DP  RH WIND       PRES   REMARKS
MILWAUKEE      MOSUNNY   83  60  45 SE7       30.06F HX  83
KENOSHA*       SUNNY     83  62  49 VRB3      30.07F HX  84
RACINE*        SUNNY     83  60  45 SE5       30.08F HX  83
BURLINGTON     SUNNY     82  59  45 CALM      30.07F HX  82
WAUKESHA       MOSUNNY   81  57  44 NW3       30.08F HX  81
$$

INZ001>003-010>013-019-020-261800-
NORTHWEST INDIANA

CITY           SKY/WX    TMP DP  RH WIND       PRES   REMARKS
GARY*          NOT AVBL
MICHIGAN CITY* NOT AVBL
RENSSELAER*    NOT AVBL
VALPARAISO     MOSUNNY   83  64  52 E6        30.08S HX  84
$$

LMZ740>746-261800-
SOUTHERN LAKE MICHIGAN

STATION/POSITION TIME  SKY/WX   TEMP WIND        PRES    VSBY
                                AIR  DIR/SP/G
                 (UTC)          (F)  (DEG/KT/KT) (MB)    (MI)
HARRISON CRIB    1600            76   90/  3/  3   N/A
BURNHAM HARBOR   1700            79   60/  4/  5   N/A
CALUMET HARBOR   1600            77   60/  5/  5 1017.7S
BURNS HARBOR     1600            76  360/  3/  5 1018.6S
MICHIGAN CITY    1600            76   10/ 10/ 10   N/A
$$

ABBREVIATIONS USED IN REMARKS
   TC - TEMPERATURE IN CELSIUS
  WCI - WIND CHILL INDEX
   HX - HEAT INDEX
  VSB - VISIBILITY
$$




USA.gov is the U.S. government's official web portal to all federal, state and local government web resources and services.